Regional Weather Roundup
Issued by NWS Pendleton, OR

Home | Current Version | Previous Version | Text Only | Print | Product List | Glossary On
Versions: 1 2 3 4 5 6 7 8 9 10 11 12 13 14 15 16 17 18 19 20 21 22 23 24 25 26 27 28 29 30 31 32 33 34 35 36 37 38 39 40 41 42 43 44 45 46 47 48 49 50
000
ASUS46 KPDT 022225
RWRPDT
PENDLETON REGIONAL WEATHER ROUNDUP
NATIONAL WEATHER SERVICE PENDLETON OREGON
300 PM PDT MON MAY 2 2016

NOTE: FAIR INDICATES FEW OR NO CLOUDS BELOW 12,000 FEET WITH NO
SIGNIFICANT WEATHER AND/OR OBSTRUCTIONS TO VISIBILITY.

# INDICATES UNOFFICIAL STATION AND DATA

WAZ520-022310-
EAST SLOPES OF WASHINGTON CASCADES

CITY            SKY/WX      TMP DP  RH  WIND    PRES   REMARKS
#CLE ELUM HS    N/A         77  38  24  E7      29.97F
#CLE ELUM 2NW   N/A         75  36  24  E3      N/A
#CLE ELUM LAKE  N/A         74  39  28  W1      29.94F
#GLENWOOD       N/A         78  40  26  S2      29.96F
#MANASTASH CYN  N/A         73  34  24  SE2     30.03F
#NELSON 3SW     N/A         74  38  27  CALM    30.14F
#NILE           N/A         76  42  30  N2      29.26F
#RONALD 2NW     N/A         74  N/A N/A E2      29.92F
#TEANAWAY 4NE   N/A         77  44  31  S3      N/A
#TROUT LAKE 1NE N/A         76  38  25  E7      29.96F
#TROUT LAKE 1E  N/A         80  38  22  CALM    29.98F
$$

WAZ521-022310-
SIMCOE HIGHLANDS

CITY            SKY/WX      TMP DP  RH  WIND    PRES   REMARKS
#BICKLETON HS   N/A         72  23  16  S3      N/A
#CENTERVILLE 1SWN/A         78  45  31  E9      29.91F
#GOLDENDALE 1NE N/A         80  23  12  E7      N/A
#GOODNOE HILLS  N/A         86  36  17  NE8     29.88F
#LYLE 6NE       N/A         80  46  30  CALM    29.91F
$$

WAZ026-022310-
KITTITAS VALLEY

CITY            SKY/WX      TMP DP  RH  WIND    PRES   REMARKS
ELLENSBURG AP   SUNNY       83  34  17  SE10    30.02F
YTC-OPS AREA    SUNNY       72  38  29  N7      30.10F
#ELLENSBURG CWU N/A         81  35  19  S7      29.93F
#ELLENSBURG 3NE N/A         78  39  25  N3      30.02F
#ELLENSBURG 1E  N/A         83  N/A N/A CALM    N/A
#KITTITAS 3S    N/A         78  42  28  S8      29.97F
#THORP 6N       N/A         74  41  30  E7      30.00F
$$

WAZ027-022310-
YAKIMA VALLEY

CITY            SKY/WX      TMP DP  RH  WIND    PRES   REMARKS
SUNNYSIDE AP    SUNNY       81  46  29  CALM    30.00F
YAKIMA AIRPORT  SUNNY       84  41  22  NE6     30.00F
YAKIMA-VAGABOND SUNNY       80  30  16  SW7     29.99F
#DONALD 2NE     N/A         88   9   5  E1      28.84F
#GRANDVIEW      N/A         81  39  22  E1      29.97F
#MABTON         N/A         82  47  29  NE5     29.98F
#NACHES 2SW     N/A         79  43  28  E2      30.04F
#TERRACE HTS    N/A         82  44  26  CALM    29.94F
#TOPPENISH      N/A         80  44  28  CALM    29.88F
#WEST VALLEY    N/A         80  41  25  CALM    29.95F
#W YAKIMA       N/A         80  41  25  E2      29.97F
#WHITE SWAN 5E  N/A         80  49  34  N5      29.96F
#WILEY CITY 3W  N/A         80  35  20  CALM    29.97F
$$

WAZ028-022310-
LOWER COLUMBIA BASIN...WASHINGTON

CITY            SKY/WX      TMP DP  RH  WIND    PRES   REMARKS
HANFORD         MOSUNNY     85  34  16  E6      30.01F
PASCO           SUNNY       85  46  26  N6      29.98F
PROSSER AWOS    N/A         82  43  25  N9      30.00F
RICHLAND AWOS   SUNNY       87  40  19  N5      29.98F
#BASIN CITY 5SW N/A         82  56  41  NE3     29.95F
#BENTON CITY    N/A         80  45  29  N5      29.88F
#CONNELL 5N     N/A         85  45  25  CALM    29.98F
#CONNELL 5NW    N/A         82  47  29  CALM    29.95F
#ELTOPIA 6NW    N/A         83  49  31  NE2     28.97F
#KAHLOTUS       N/A         79  41  26  CALM    29.98F
#PATERSON       N/A         84  41  22  S2      29.92F
#SAGEMOOR 2W    N/A         84  46  27  NW2     29.83F
#TOUCHET 2S     N/A         82  65  56  CALM    29.93F
#WEST PASCO     N/A         85  53  33  N2      30.03F
$$

WAZ029-022310-
FOOTHILLS OF THE BLUES...WASHINGTON

CITY            SKY/WX      TMP DP  RH  WIND    PRES   REMARKS
WALLA WALLA AP  SUNNY       80  44  28  N5      30.00F
#CLYDE 6NW      N/A         79  44  29  NW6     29.97F
#DAYTON SCHOOL  N/A         78  41  27  N5      30.03F
#LOWDEN 2SE     N/A         84  51  32  E2      29.93F
#PLEASANT VIEW 1N/A         79  39  24  CALM    30.03F
#PRESCOTT       N/A         82  49  32  N3      29.96F
#SUDBURY        N/A         57  N/A N/A CALM    N/A
#WHITMAN COLLEGEN/A         81  43  26  N3      30.00F
#WAITSBURG 5S   N/A         80  47  31  N7      30.06F
#WAITSBURG 8N   N/A         85  24  11  N8      29.82F
#WALLA WALLA U  N/A         83  44  25  N5      29.96
#WHITMAN MISSIONN/A         84  49  30  CALM    29.97F
$$

WAZ030-022310-
BLUE MOUNTAINS...WASHINGTON

CITY            SKY/WX      TMP DP  RH  WIND    PRES   REMARKS
#DIXIE 5SE      N/A         72  48  43  N7      30.01F
$$

ORZ009-041-WAZ024-022310-
COLUMBIA RIVER GORGE

CITY            SKY/WX      TMP DP  RH  WIND    PRES   REMARKS
HOOD RIVER AP   SUNNY       84  39  20  NE9     29.95F
THE DALLES AP   SUNNY       88  39  18  NW8     29.92F
#ARLINGTON AIRPON/A         83  34  17  E12     29.94F
#CELILO DOT     N/A         90  50  26  N1      N/A    HX 87
#MARYHILL 2W    N/A         87  39  18  NE1     N/A
#MOSIER 1S      N/A         84  30  14  CALM    29.94F
#MURDOCK        N/A         85  42  22  SW3     29.87F
#RUFUS DOT      N/A         82  41  23  NE10    N/A

$$

ORZ510-022310-
NORTH CENTRAL OREGON

CITY            SKY/WX      TMP DP  RH  WIND    PRES   REMARKS
#ANTELOPE       N/A         77  36  23  SE3     29.78F
#COW CYN RST AREN/A         74  25  16  N7      N/A
#DUFUR 9E       N/A         75  38  26  SE8     29.97F
#GRASS VALLEY   N/A         77  30  18  E6      N/A
#GRASS VALLEY 1SN/A         79  39  24  SE10    29.95F
#KENT DOT       N/A         77  29  17  N8      N/A
#MAUPIN SCHOOL  N/A         84  43  24  NW2     29.96F
#MORO SCHOOL    N/A         80  47  31  E1      29.99F
#SHANIKO 5WSW   N/A         74  28  18  SE6     N/A
#TYGH VALLEY 2NEN/A         81  44  27  S1      29.91F
#WAPANITIA AIRPON/A         79  37  22  N1      29.94F
#WASCO DOT      N/A         84  42  23  NE8     N/A
#WASCO 5NE      N/A         81  45  28  E5      29.94F
$$

ORZ511-022310-
CENTRAL OREGON

CITY            SKY/WX      TMP DP  RH  WIND    PRES   REMARKS
BEND AIRPORT    MOSUNNY     73  27  18  SE9     30.01F
MADRAS AIRPORT  MOCLDY      81  25  13  SE13    30.01F
PRINEVILLE AP   MOCLDY      73  28  19  SE9     30.02F
REDMOND AIRPORT MOCLDY      77  30  18  E6      30.01F
#ASHWOOD SCHOOL N/A         79  27  15  SE7     29.96F
#BEND 1SW       N/A         71  31  23  NE2     N/A
#BEND-AWBREY    N/A         75  32  21  CALM    29.91F
#BEND-KIM LN    N/A         76  32  20  E3      29.99F
#CULVER         N/A         76  28  17  NE10    29.90F
#LAKE BILLY CHINN/A         79  N/A N/A N2      30.02F
#POWELL BUTTE   N/A         76  35  22  S8      29.89F
#PRINEVILLE 3N  N/A         72  38  29  E10     29.93F
#WARM SPRINGS   N/A         82  38  21  CALM    29.93F

$$


ORZ509-022310-
EAST SLOPES OF OREGON CASCADES

CITY            SKY/WX      TMP DP  RH  WIND    PRES   REMARKS
SISTERS AWOS    N/A         73  27  18  CALM    29.99F
#BLUE BOX PASS  N/A         71  N/A N/A CALM    N/A
#BLACK BUTTE RNCN/A         75  33  21  CALM    29.95F
#CAMP SHERMAN   N/A         77  27  16  CALM    30.01F
#LA PINE 4NW    N/A         71  32  24  CALM    29.98F
#LAVA BUTTE DOT N/A         68  26  20  CALM    N/A
#SISTERS AIRPOR N/A         74  40  29  N12     30.17S
#SISTERS ODOT   N/A         74  N/A N/A SW1     N/A
#SISTERS 1NW    N/A         75  27  17  NE10    N/A
#SISTERS 3N     N/A         75  37  25  S3      30.00F
#SUNRIVER       N/A         71  30  22  S3      29.95F
#TUMALO 3W      N/A         70  33  25  SE3     29.80F
#WANOGA BUTTE D N/A         58  23  26  E3      N/A

$$

ORZ044-022310-
LOWER COLUMBIA BASIN...OREGON

CITY            SKY/WX      TMP DP  RH  WIND    PRES   REMARKS
HERMISTON       SUNNY       86  41  21  N10     29.96F
#BOARDMAN SCHOOLN/A         84  41  22  N3      29.94F
#BOARDMAN 8SW   N/A         82  47  29  N7      29.94F
#ECHO 8SW       N/A         84  43  24  NE7     29.97F
#I-84 EX 198 DOTN/A         81  46  29  E14     N/A
#UMATILLA SCHOOLN/A         87  56  35  E7      30.02R
#UMATILLA       N/A         86  44  23  N7      29.87F
$$

ORZ507-022310-
NORTHERN FOOTHILLS OF THE BLUES

CITY            SKY/WX      TMP DP  RH  WIND    PRES   REMARKS
PENDLETON AIRPT SUNNY       83  36  19  NE14G24 29.98F
#ADAMS 3WNW     N/A         80  42  26  N13     29.95F
#ATHENA         N/A         78  44  30  NE6     29.99F
#CAYUSE         N/A         79  47  32  N9      29.93F
#HELIX SCHOOL   N/A         77  46  33  N7      29.98F
#HELIX 3N       N/A         76  44  32  N14     29.99F
#HELIX 6SW      N/A         80  45  29  NE14    29.99F
#HOLDMAN 5SE    N/A         82  45  27  NE5     29.97F
#HOLDMAN 6E     N/A         80  47  31  S9      29.77F
#M-F FERNDALE   N/A         88  47  24  CALM    29.97F
#M-F GROVE ELEM N/A         81  40  23  N3      29.98F
#M-FREEWATER 5SEN/A         83  53  36  CALM    29.99F
#PENDLETON DNTN N/A         87  45  23  NE7     30.01S
#PDT AQUATIC CTRN/A         84  40  21  NE9     29.99F
#PDT SUNRIDGE   N/A         82  43  25  N3      29.98F
#PENDLETON 7NW  N/A         81  49  33  N9      27.45S
#PILOT ROCK     N/A         80  43  27  N6      30.00F
#TUTUILLA       N/A         81  44  27  CALM    29.97F
#UMAPINE 2E     N/A         84  44  25  N6      29.95F
#WESTON SCHOOL  N/A         76  37  24  NE6     29.93F

$$

ORZ508-022310-
SOUTHERN FOOTHILLS OF THE BLUES

CITY            SKY/WX      TMP DP  RH  WIND    PRES   REMARKS
#AJAX           N/A         79  30  17  NE7     27.75F
#CONDON SCHOOL  N/A         76  32  20  SE10    29.99F
#CONDON 5W      N/A         73  27  18  E13     30.02F
#FOSSIL SCHOOL  N/A         78  28  16  SE6     29.98F
#HEPPNER EOC    N/A         78  40  26  N6      29.88F
#HEPPNER 4NE    N/A         74  41  30  E6      29.96F
#LEXINGTON 2SE  N/A         82  39  22  E5      29.95F
#MIKKALO        N/A         80  39  23  E6      30.08F
#OLEX 4N        N/A         82  39  22  NE7     29.95F
#RUGGS 5NE      N/A         85  -13  2  E6      30.17F
#RUGGS 2SW      N/A         78  32  19  E7      29.97F

$$

ORZ502-503-022310-
BLUE MOUNTAINS

CITY            SKY/WX      TMP DP  RH  WIND    PRES   REMARKS
MEACHAM         MOSUNNY     74  30  20  VRB3    30.10F
#BATTLE MTN DOT N/A         71  40  32  S6      N/A
#GREENHORN 9SW  N/A         71  34  26  E7      26.28F
#HARDMAN 10S    N/A         61  34  36  N5      30.22R
#LADD CYN SMT   N/A         73  22  15  S6      N/A
#LADD CREEK ODOTN/A         79  38  23  S6      N/A
#N POWDER DOT   N/A         73  36  26  S10     N/A
#PIKES PEAK     N/A         69  44  40  N6      27.99S
#TOLLGATE       N/A         64  33  31  CALM    30.01F
#TROY SCHOOL    N/A         82  44  26  CALM    29.82F
#UKIAH          N/A         76  35  22  SE3     29.92F
#WESTON 4E      N/A         73  44  35  N1      29.94F
$$

ORZ505-022310-
JOHN DAY BASIN

CITY            SKY/WX      TMP DP  RH  WIND    PRES   REMARKS
JOHN DAY        PTCLDY      72  31  22  E10     30.09F
#DAYVILLE SCHOOLN/A         78  30  17  E6      29.99F
#MITCHELL       N/A         76  37  24  E3      30.17F
#MITCHELL 8NW   N/A         73  23  15  E7      30.13F
#MONUMENT HS    N/A         79  32  18  S5      29.95F
#MT. VERNON 5SE N/A         66  31  27  E7      30.05F
#SPRAY SCHOOL   N/A         81  N/A N/A CALM    N/A
#WINLOCK        N/A         79  29  16  NE2     30.01F
$$

ORZ506-022310-
OCHOCO AND JOHN DAY HIGHLANDS

CITY            SKY/WX      TMP DP  RH  WIND    PRES   REMARKS
#BUCK CREEK DOT N/A         68  32  26  SE16    N/A
#HORSE RIDGE DO N/A         68  20  16  E12     N/A
#KEYES SMT DOT  N/A         69  26  20  E7      N/A
#PAULINA SCHOOL N/A         72  27  19  E8      29.29F
#PINE MTN OBS   N/A         57  27  31  SE13G25 N/A
#PRAIRIE CITY   N/A         73  31  21  CALM    30.06F
#SENECA         N/A         65  N/A N/A SE12    N/A
#SENECA 9NW     N/A         67  33  28  S2      30.05F
$$

ORZ049-022310-
GRANDE RONDE VALLEY

CITY            SKY/WX      TMP DP  RH  WIND    PRES   REMARKS
LA GRANDE       SUNNY       77  34  21  SE13    30.05F
#COVE           N/A         76  43  31  CALM    30.09F
#COVE SCHOOL    N/A         79  39  24  CALM    30.08F
#COVE 6NW       N/A         39  35  85  CALM    29.63S
#ELGIN 3N       N/A         74  36  25  S8      30.04F
#ELGIN 1E       N/A         76  41  28  CALM    N/A
#IMBLER SCHOOL  N/A         75  41  29  N2      30.03F
#ISLAND CITY 4N N/A         83  54  37  CALM    29.91F
#LADD CYN DOT   N/A         76  39  26  S9      N/A
#UNION 1S       N/A         76  38  25  S7      29.92F
$$

ORZ050-022310-
WALLOWA COUNTY

CITY            SKY/WX      TMP DP  RH  WIND    PRES   REMARKS
JOSEPH AIRPORT  PTCLDY      72  34  25  CALM    30.13F
#ENTERPRISE AP  N/A         49  29  46  CALM    30.04F
#ENTERPRISE HS  N/A         72  43  35  E2      30.09F
#IMNAHA SCHOOL  N/A         80  46  30  N3      30.02F
#IMNAHA 10S     N/A         73  39  29  N7      30.05F
#JOSEPH 3N      N/A         69  50  51  E2      30.13F
#JOSEPH 3W      N/A         69  38  32  CALM    N/A
#LOSTINE        N/A         78  45  31  CALM    29.82F
#MT HOWARD 8000 N/A         51  28  41  S1      30.29F
#PROMISE 1S     N/A         68  42  39  W8      30.11F
#WALLOWA SCHOOL N/A         76  40  27  CALM    30.03F



$$



USA.gov is the U.S. government's official web portal to all federal, state and local government web resources and services.